This demonstration page uses our WeatherBlox Daily Observations layout. Learn more.

Left ArrowRight Arrow

40.92945, -100.16068

Hourly Observations for June 11, 2020

Temp ( °F °C ) Dew Point ( °F °C ) Humidity (%) Winds ( mph kmh ) Pressure ( in mb ) Visibility ( mi km ) Precip ( " mm )
12:15 am 00:15 Clear 56 13.5 52 11 85 85 Calm 30.12 1020 10 16.0934 0 0
12:35 am 00:35 Clear 56 13.5 52 11.1 86 86 SE 3 6 30.12 1020 10 16.0934 0 0
12:55 am 00:55 Clear 52 11.1 50 10.1 94 94 Calm 30.15 1021 10 16.0934 0 0
1:15 am 01:15 Clear 52 11.2 50 10 92 92 Calm 30.16 1021 10 16.0934 0 0
1:35 am 01:35 Clear 53 11.6 51 10.4 92 92 ENE 3 6 30.15 1021 10 16.0934 0 0
1:55 am 01:55 Clear 52 11 50 10.2 95 95 Calm 30.16 1021 10 16.0934 0 0
2:15 am 02:15 Clear 51 10.7 49 9.6 93 93 Calm 30.16 1021 10 16.0934 0 0
2:35 am 02:35 Clear 51 10.5 50 9.8 95 95 Calm 30.17 1022 10 16.0934 0 0
2:55 am 02:55 Clear 51 10.4 49 9.7 95 95 Calm 30.17 1022 10 16.0934 0 0
3:15 am 03:15 Clear 50 9.8 49 9.3 97 97 Calm 30.17 1022 10 16.0934 0 0
3:35 am 03:35 Clear 50 10 49 9.2 95 95 Calm 30.17 1022 10 16.0934 0 0
3:55 am 03:55 Clear 50 10.1 49 9.5 96 96 Calm 30.18 1022 7 11.26538 0 0
4:15 am 04:15 Clear 49 9.6 48 9 96 96 N 5 7 30.18 1022 10 16.0934 0 0
4:35 am 04:35 Clear 50 9.9 49 9.3 96 96 NNE 3 6 30.18 1022 10 16.0934 0 0
4:55 am 04:55 Clear with Mist and Fog 50 9.8 49 9.2 96 96 Calm 30.18 1022 4 6.43736 0 0
5:15 am 05:15 Clear 48 9 47 8.4 96 96 NNE 3 6 30.2 1023 10 16.0934 0 0
5:35 am 05:35 Clear 49 9.2 47 8.6 96 96 NNE 3 6 30.2 1023 10 16.0934 0 0
5:55 am 05:55 Clear 47 8.6 46 8 96 96 NE 5 7 30.21 1023 10 16.0934 0 0
6:15 am 06:15 Sunny 48 8.9 47 8.2 95 95 Calm 30.21 1023 10 16.0934 0 0
6:35 am 06:35 Sunny 48 9 47 8.2 95 95 E 5 7 30.21 1023 10 16.0934 0 0
6:55 am 06:55 Sunny 50 9.9 48 9.1 95 95 ENE 3 6 30.21 1023 10 16.0934 0 0
7:15 am 07:15 Sunny 52 11.3 51 10.5 95 95 ENE 3 6 30.2 1023 10 16.0934 0 0
7:35 am 07:35 Sunny 56 13.3 54 12.2 93 93 Calm 30.18 1022 10 16.0934 0 0
7:55 am 07:55 Sunny 60 15.7 54 12 79 79 Calm 30.16 1021 10 16.0934 0 0
8:15 am 08:15 Sunny 62 16.6 53 11.8 73 73 Calm 30.15 1021 10 16.0934 0 0
8:35 am 08:35 Sunny 64 17.6 54 12.3 71 71 Calm 30.14 1021 10 16.0934 0 0
8:55 am 08:55 Sunny 65 18.4 54 12 66 66 W 3 6 30.15 1021 10 16.0934 0 0
9:15 am 09:15 Sunny 67 19.5 55 12.8 65 65 SSW 5 7 30.14 1021 10 16.0934 0 0
9:35 am 09:35 Sunny 69 20.5 54 12.3 59 59 SSW 6 9 30.13 1020 10 16.0934 0 0
9:55 am 09:55 Sunny 71 21.5 55 12.7 57 57 SW 8 13 30.12 1020 10 16.0934 0 0
10:15 am 10:15 Sunny 73 22.6 54 12.4 53 53 WSW 9 15 30.11 1020 10 16.0934 0 0
10:35 am 10:35 Sunny 74 23.2 55 12.5 51 51 WNW 8 13 30.1 1019 10 16.0934 0 0
10:55 am 10:55 Sunny 75 23.8 56 13.2 52 52 WNW 8 13 30.11 1020 10 16.0934 0 0
11:15 am 11:15 Sunny 76 24.2 56 13.2 50 50 WNW 10 17 30.11 1019 10 16.0934 0 0
11:35 am 11:35 Sunny 76 24.5 56 13.3 50 50 WNW 6 9 30.1 1019 10 16.0934 0 0
11:55 am 11:55 Sunny 76 24.7 56 13.3 49 49 WNW 6 9 30.1 1019 10 16.0934 0 0
12:15 pm 12:15 Sunny 78 25.6 55 13 46 46 WNW 8 13 30.09 1019 10 16.0934 0 0
12:35 pm 12:35 Sunny 79 26 55 12.8 44 44 W 9 15 30.1 1019 10 16.0934 0 0
12:55 pm 12:55 Sunny 80 26.5 55 12.7 42 42 WNW 6 9 30.09 1019 10 16.0934 0 0
1:15 pm 13:15 Sunny 81 27.1 56 13.4 43 43 Calm 30.08 1019 10 16.0934 0 0
1:35 pm 13:35 Sunny 81 27.4 57 14 44 44 W 6 9 30.07 1018 10 16.0934 0 0
1:55 pm 13:55 Sunny 82 27.9 55 13 40 40 W 6 9 30.06 1018 10 16.0934 0 0
2:15 pm 14:15 Sunny 83 28.1 54 12.1 37 37 Calm 30.06 1018 10 16.0934 0 0
2:35 pm 14:35 Sunny 83 28.6 53 11.4 34 34 WSW 7 11 30.05 1018 10 16.0934 0 0
2:55 pm 14:55 Sunny 84 28.7 53 11.9 35 35 WSW 7 11 30.05 1018 10 16.0934 0 0
3:15 pm 15:15 Sunny 85 29.2 54 12.4 35 35 WNW 5 7 30.03 1017 10 16.0934 0 0
3:35 pm 15:35 Sunny 84 29.1 56 13.3 38 38 NNE 3 6 30.04 1017 10 16.0934 0 0
3:55 pm 15:55 Sunny 85 29.5 55 12.8 36 36 Calm 30.03 1017 10 16.0934 0 0
4:15 pm 16:15 Sunny 86 30 53 11.6 32 32 SW 3 6 30.03 1017 10 16.0934 0 0
4:35 pm 16:35 Sunny 86 29.9 54 12.1 33 33 Calm 30.03 1017 10 16.0934 0 0
4:55 pm 16:55 Sunny 86 30 53 11.6 32 32 Calm 30.02 1017 10 16.0934 0 0
5:15 pm 17:15 Sunny 85 29.7 57 13.7 38 38 ESE 7 11 30.02 1017 7 11.26538 0 0
5:35 pm 17:35 Hazy 85 29.5 53 11.4 33 33 Calm 30.02 1017 2.5 4.02335 0 0
5:55 pm 17:55 Hazy 82 27.6 60 15.6 48 48 ENE 14 22 30.04 1017 3 4.82802 0 0
6:15 pm 18:15 Sunny 81 27.3 59 15.1 47 47 NE 13 20 30.05 1018 10 16.0934 0 0
6:35 pm 18:35 Sunny 80 26.7 59 15 49 49 ENE 10 17 30.05 1018 10 16.0934 0 0
6:55 pm 18:55 Sunny 79 26.3 58 14.7 49 49 NE 14 22 30.06 1018 10 16.0934 0 0
7:15 pm 19:15 Sunny 78 25.8 58 14.3 49 49 NE 12 19 30.07 1018 7 11.26538 0 0
7:35 pm 19:35 Sunny 77 25.1 57 13.8 50 50 NE 9 15 30.08 1019 10 16.0934 0 0
7:55 pm 19:55 Sunny 76 24.4 57 14 52 52 NE 8 13 30.09 1019 10 16.0934 0 0
8:15 pm 20:15 Sunny 74 23.5 58 14.4 57 57 NE 7 11 30.11 1020 10 16.0934 0 0
8:35 pm 20:35 Sunny 72 22.3 58 14.7 62 62 NE 7 11 30.12 1020 10 16.0934 0 0
8:55 pm 20:55 Sunny 70 21.1 59 14.9 68 68 ENE 6 9 30.14 1021 10 16.0934 0 0
9:15 pm 21:15 Clear 68 20.1 58 14.5 70 70 NE 7 11 30.15 1021 10 16.0934 0 0
9:35 pm 21:35 Clear 66 19 58 14.3 74 74 NE 7 11 30.16 1021 10 16.0934 0 0
9:55 pm 21:55 Clear 66 18.7 57 14 74 74 NE 6 9 30.17 1022 10 16.0934 0 0
10:15 pm 22:15 Clear 66 18.8 56 13.5 71 71 ENE 5 7 30.18 1022 10 16.0934 0 0
10:35 pm 22:35 Clear 63 17.2 56 13.5 79 79 ENE 7 11 30.21 1023 10 16.0934 0 0
10:55 pm 22:55 Clear 62 16.7 56 13.2 80 80 ENE 6 9 30.22 1023 10 16.0934 0 0
11:15 pm 23:15 Clear 63 17.1 55 13 77 77 ENE 6 9 30.22 1023 10 16.0934 0 0
11:35 pm 23:35 Clear 62 16.4 55 13 80 80 E 5 7 30.23 1024 10 16.0934 0 0
11:55 pm 23:55 Clear 60 15.5 55 13 85 85 ENE 6 9 30.24 1024 N/A 0 0

Powered by AerisWeather